Weather History for KBMI - April, 2013

Change the Weather History Date:

Saturday, April 13, 2013

  Actual Average Record
Temperature  
Mean Temperature 43 °F -  
Max Temperature 50 °F 0 °F 82 °F (2006)
Min Temperature 36 °F - 26 °F (2004)
Degree Days  
Heating Degree Days 22    
Moisture  
Dew Point 31 °F    
Average Humidity 65    
Maximum Humidity 82    
Minimum Humidity 48    
Precipitation  
Precipitation 0.00 in - - ()
Sea Level Pressure  
Sea Level Pressure 29.99 in    
Wind  
Wind Speed 13 mph (WSW)    
Max Wind Speed 22 mph    
Max Gust Speed 29 mph    
Visibility 10 miles    
Events      
Averages and records for this station are not official NWS values.
T = Trace of Precipitation, MM = Missing Value Source: NWS Daily Summary

Daily Weather History Graph

Daily Weather History Graph

Search for Another Location

Airport or City:

Trip Planner

Search our weather history database for the weather conditions in past years. The results will help you decide how hot, cold, wet, or windy it might be!

Date:

Astronomy

Apr. 13, 2013 Rise Set
Actual Time 6:19 AM CDT 7:32 PM CDT
Civil Twilight 5:51 AM CDT 8:01 PM CDT
Nautical Twilight 5:18 AM CDT 8:34 PM CDT
Astronomical Twilight 4:42 AM CDT 9:10 PM CDT
Moon 8:10 AM CDT (4/13) 10:57 PM CDT (4/13)
Length of Visible Light 14h 09m
Length of Day
13h 13m
Waxing Crescent, 10% of the Moon is Illuminated
Apr 13
Waxing Crescent
Apr 18
First Quarter
Apr 25
Full
May 2
Last Quarter
May 9
New

Hourly Weather History & Observations

Time (CDT) Temp. Windchill Dew Point Humidity Pressure Visibility Wind Dir Wind Speed Gust Speed Precip Events Conditions
12:25 AM 39.2 °F 32.5 °F 33.8 °F 81% 29.93 in 10.0 mi West 10.4 mph - N/A   Overcast
12:56 AM 38.8 °F 30.8 °F 32.9 °F 79% 29.97 in 10.0 mi West 13.8 mph - N/A   Overcast
1:56 AM 38.8 °F 31.2 °F 32.9 °F 79% 29.97 in 10.0 mi West 12.7 mph - N/A   Overcast
2:56 AM 37.9 °F 31.5 °F 32.9 °F 82% 29.96 in 10.0 mi WSW 9.2 mph - N/A   Mostly Cloudy
3:56 AM 37.9 °F 30.0 °F 30.0 °F 73% 29.96 in 10.0 mi WSW 12.7 mph 19.6 mph N/A   Mostly Cloudy
4:56 AM 37.9 °F 30.5 °F 31.1 °F 76% 29.96 in 10.0 mi West 11.5 mph - N/A   Mostly Cloudy
5:56 AM 37.9 °F 28.5 °F 29.1 °F 71% 29.96 in 10.0 mi West 17.3 mph 24.2 mph N/A   Mostly Cloudy
6:30 AM 37.4 °F 27.5 °F 26.6 °F 65% 29.93 in 10.0 mi West 18.4 mph 28.8 mph N/A   Overcast
6:56 AM 36.0 °F 26.3 °F 28.0 °F 73% 29.97 in 10.0 mi West 16.1 mph 21.9 mph N/A   Overcast
7:56 AM 36.0 °F 26.3 °F 29.1 °F 76% 30.00 in 10.0 mi WNW 16.1 mph - 0.00 in   Overcast
8:56 AM 36.0 °F 25.0 °F 26.1 °F 67% 30.01 in 10.0 mi WNW 20.7 mph 27.6 mph 0.00 in   Overcast
9:56 AM 37.9 °F 27.3 °F 26.1 °F 62% 30.03 in 10.0 mi WNW 21.9 mph 25.3 mph N/A   Mostly Cloudy
10:56 AM 39.9 °F 31.8 °F 27.1 °F 60% 30.04 in 10.0 mi West 15.0 mph - N/A   Mostly Cloudy
11:56 AM 41.9 °F 33.4 °F 27.1 °F 56% 30.04 in 10.0 mi West 18.4 mph 24.2 mph N/A   Mostly Cloudy
12:56 PM 45.0 °F 37.6 °F 29.1 °F 54% 30.03 in 10.0 mi WSW 17.3 mph 24.2 mph N/A   Mostly Cloudy
1:56 PM 46.9 °F - 31.1 °F 54% 30.02 in 10.0 mi West 12.7 mph 21.9 mph N/A   Scattered Clouds
2:56 PM 46.9 °F - 30.0 °F 52% 30.02 in 10.0 mi West 13.8 mph - N/A   Mostly Cloudy
3:56 PM 48.9 °F - 31.1 °F 50% 30.00 in 10.0 mi WSW 13.8 mph - N/A   Mostly Cloudy
4:56 PM 50.0 °F - 31.1 °F 48% 30.00 in 10.0 mi WSW 9.2 mph - N/A   Scattered Clouds
5:56 PM 50.0 °F - 31.1 °F 48% 30.00 in 10.0 mi WSW 11.5 mph - N/A   Clear
6:56 PM 47.8 °F - 31.1 °F 52% 30.00 in 10.0 mi WSW 9.2 mph - N/A   Overcast
7:56 PM 46.9 °F - 32.9 °F 58% 29.99 in 10.0 mi WSW 4.6 mph - N/A   Mostly Cloudy
8:56 PM 45.9 °F - 34.9 °F 66% 29.99 in 10.0 mi Calm Calm - N/A   Overcast
9:56 PM 43.9 °F 41.3 °F 34.0 °F 68% 30.00 in 10.0 mi SSE 4.6 mph - N/A   Mostly Cloudy
10:56 PM 43.0 °F 39.5 °F 34.9 °F 73% 29.99 in 10.0 mi SSE 5.8 mph - N/A   Mostly Cloudy
11:56 PM 43.0 °F 39.5 °F 36.9 °F 79% 29.99 in 10.0 mi ESE 5.8 mph - N/A   Overcast